Simultaneous Nadir Overpasses (SNOs) Predictions

Prediction of SNOs between GOES-16 and TERRA Satellite Orbit:

Table of predicted SNOs for the next 14.0 days since TLE Epoch: 9/7/2024
Index Date Time (GOES-16) GOES-16 Lat,Lon TERRA Lat,Lon Distance(km) Time Diff (sec)
1 09/09/2024 02:32:20 0.04, -75.20 0.64, -72.38 321.44 80
2 09/09/2024 14:49:27 -0.05, -75.21 0.39, -77.18 224.86 80
3 09/11/2024 14:34:16 -0.04, -75.21 -0.54, -72.88 265.04 80
4 09/12/2024 02:51:33 0.04, -75.21 -0.49, -77.73 286.83 80
5 09/14/2024 02:36:20 0.04, -75.22 0.39, -73.42 203.99 80
6 09/14/2024 14:53:27 -0.04, -75.22 0.60, -78.23 341.80 80
7 09/16/2024 14:38:13 -0.03, -75.24 -0.31, -73.92 150.41 80
8 09/17/2024 02:58:08 0.03, -75.24 -0.73, -78.76 400.67 80
9 09/19/2024 02:37:33 0.03, -75.26 0.20, -74.44 92.98 80
10 09/19/2024 14:59:59 -0.03, -75.27 0.81, -79.25 452.12 80
